EHI
0 1 1 1 0 0 0 0 0 0 0 0 0 0 0 0 1 2 1 0 0 0 0 0 1 2 1 0 0 0 1 2 2 4 7 7 6 5 4 4 3 2 2
0 0 0 0 0 0 0 0 0 0 0 0 0 0 0 0 1 1 1 0 0 0 0 0 1 2 1 1 1 0 1 2 2 4 5 5 4 4 4 4 3 2 2
0 0 0 0 0 1 0 0 0 0 0 0 0 0 0 0 0 0 0 0 0 0 0 0 1 2 2 2 2 1 1 2 2 3 4 2 1 2 3 3 3 1 1
0 0 0 0 0 0 0 0 0 0 0 0 0 0 0 0 0 0 0 0 0 0 0 0 1 2 3 3 3 2 1 1 1 1 2 1 0 1 1 2 2 1 0
0 0 0 0 0 0 0 0 0 0 0 0 0 0 0 0 0 0 0 0 0 0 0 0 2 3 3 3 2 1 1 1 0 0 0 0 0 0 0 1 1 0 0
0 0 0 0 0 0 0 0 1 0 0 0 0 0 0 0 0 0 0 0 0 0 0 0 1 2 2 1 1 0 1 1 1 0 0 0 0 0 0 0 0 0 0
0 0 0 0 0 0 0 0 1 0 0 0 0 0 0 0 0 0 1 0 0 0 0 0 1 1 1 0 0 0 1 1 1 0 0 0 0 0 0 0 0 0 0
0 0 1 1 1 0 0 0 1 0 0 0 0 0 0 0 0 0 0 0 0 0 0 0 0 0 0 0 0 0 0 0 0 0 0 0 0 0 0 0 0 0 0
0 1 2 2 1 0 0 0 0 0 0 0 0 0 0 0 0 0 0 0 0 0 1 0 0 0 0 0 0 0 0 0 0 0 0 0 0 0 0 0 1 1 1
0 1 2 3 2 2 1 0 0 0 1 0 0 0 0 0 0 0 0 0 0 0 0 0 0 0 0 0 0 0 0 0 0 0 0 0 0 0 0 0 1 2 2
0 1 2 3 4 3 2 0 0 0 0 0 0 0 0 0 0 0 0 0 0 0 0 0 0 0 0 0 0 0 0 0 0 0 0 0 0 0 0 0 0 1 2
0 0 1 3 3 3 2 1 0 0 0 0 0 0 0 0 0 0 0 0 0 0 0 0 0 0 0 0 0 0 0 0 0 0 0 0 0 0 0 0 0 0 1
0 0 1 2 3 3 2 1 0 0 0 0 0 0 0 0 0 0 0 0 0 0 0 0 0 0 0 0 0 0 0 0 1 0 0 0 0 0 0 1 1 1 0
0 0 0 1 3 3 3 1 0 0 0 0 0 0 0 0 0 0 1 1 0 0 0 0 1 0 0 0 0 0 0 0 0 0 0 0 0 0 0 1 2 2 1
0 0 0 1 3 4 3 2 0 0 0 0 0 0 0 0 0 0 1 1 0 0 0 0 0 0 0 0 0 0 0 0 0 0 0 1 0 0 0 0 2 3 2
1 1 2 2 3 4 3 2 0 0 0 0 0 0 0 0 0 0 1 1 0 0 0 0 0 0 0 0 0 0 0 0 0 0 0 0 0 1 1 1 1 2 1
1 3 3 3 4 4 2 1 0 0 1 0 0 0 0 0 0 0 0 0 0 0 0 0 0 0 0 0 0 0 0 0 0 0 0 0 0 1 2 1 1 0 0
3 5 5 4 5 5 3 1 0 0 0 0 0 0 0 0 0 1 1 1 0 1 0 0 1 1 1 1 1 0 1 2 1 0 0 0 1 1 2 2 1 1 0
6 7 6 6 6 5 3 1 0 0 0 0 0 0 0 0 0 2 2 1 0 0 0 1 2 4 3 2 2 1 2 3 2 1 0 0 1 1 2 3 2 1 1
9 9 8 7 6 5 3 2 1 0 0 0 0 0 0 0 0 1 2 2 0 0 1 1 3 4 4 4 3 1 1 2 2 1 1 0 0 0 1 2 2 1 1
12 12 11 9 7 7 6 4 2 1 0 0 0 0 0 0 0 1 2 2 1 1 2 3 3 4 4 5 4 2 0 1 2 2 2 1 0 0 0 1 2 3 3
15 14 14 12 10 10 9 6 3 1 0 0 0 0 0 0 0 0 1 2 3 3 3 3 4 4 4 5 5 3 1 1 2 2 2 2 1 1 0 1 3 5 5
16 16 15 15 13 12 10 7 4 3 1 0 0 0 0 0 0 0 1 2 4 4 4 3 3 4 4 5 5 3 1 1 1 1 1 1 2 2 2 2 3 4 4
15 15 17 17 14 12 10 8 5 4 2 1 0 0 0 0 0 0 1 2 3 4 4 3 2 3 3 4 3 3 1 1 1 1 1 1 3 3 3 2 2 2 2
13 14 16 17 15 12 11 8 5 4 3 2 0 0 0 0 0 0 0 1 2 3 3 3 3 3 3 2 2 2 2 2 1 1 1 2 3 3 3 3 3 3 3
13 14 16 17 15 12 10 8 5 3 3 3 1 0 1 1 1 0 0 0 1 3 3 4 4 4 3 2 2 3 3 3 2 1 0 1 3 3 3 3 3 3 3
Wind_Speed
4 6 8 7 9 10 11 11 12 12 12 13 13 13 14 14 14 14 14 14 14 14 14 14 14 14 14 14 15 14 14 14 14 14 15 15 14 14 14 13 12 12 14
5 7 8 7 10 11 11 12 12 12 12 13 13 13 13 14 14 14 13 13 13 14 14 14 14 15 15 14 14 14 14 14 13 14 14 14 13 13 12 9 7 11 13
5 7 7 8 10 11 11 12 12 12 12 13 13 13 13 13 13 14 13 13 13 14 13 14 15 15 15 14 13 13 13 12 12 11 11 10 12 12 11 11 12 13 12
6 7 9 10 10 11 11 11 12 12 13 12 13 12 12 13 13 14 14 13 13 13 13 14 15 15 14 13 12 12 12 12 10 9 7 8 10 12 11 11 11 12 12
7 7 10 9 11 11 11 11 12 12 12 12 12 12 12 13 13 14 13 13 13 13 13 14 14 14 13 12 11 11 11 10 8 7 7 7 8 11 10 11 11 11 10
8 8 12 9 10 11 11 11 11 11 11 12 12 12 12 12 13 13 13 13 13 13 12 12 13 12 11 11 10 10 10 9 9 6 6 6 8 10 10 10 10 10 10
8 9 11 10 10 10 10 11 11 11 12 11 11 11 11 11 11 12 12 12 12 12 12 11 11 11 10 9 9 8 8 6 3 6 5 5 8 10 9 9 9 10 9
8 9 11 10 9 10 10 10 11 11 11 11 11 10 10 10 10 11 11 11 11 11 11 10 10 10 9 8 7 7 6 6 4 5 5 6 9 8 8 8 8 9 9
8 8 7 9 9 9 9 10 10 10 10 10 9 9 9 9 10 10 10 10 10 10 10 10 10 10 9 8 6 5 4 3 3 4 5 5 10 8 7 8 8 9 9
7 7 6 7 7 7 9 10 9 9 9 9 9 8 8 9 10 9 10 10 9 9 9 9 9 9 8 7 5 4 3 4 2 4 3 8 10 8 7 7 8 8 8
6 5 5 7 6 6 7 9 8 9 8 7 8 8 4 5 7 8 11 10 8 8 8 8 8 7 7 8 6 4 5 2 2 2 3 10 9 8 7 7 7 7 7
6 5 5 5 6 5 5 5 4 5 6 4 5 5 4 4 4 6 11 8 7 7 7 7 6 7 6 5 8 7 3 2 1 2 5 10 8 7 7 7 7 7 7
5 5 6 5 4 4 4 3 3 3 4 4 5 4 3 2 3 4 4 6 6 6 5 8 6 3 2 2 1 2 1 0 0 1 6 10 7 6 6 7 7 7 7
5 5 4 5 4 3 3 3 3 3 2 3 4 2 3 2 2 3 2 2 2 2 3 2 2 3 2 2 1 1 1 1 0 1 5 9 6 5 5 6 7 7 8
5 5 5 4 4 3 2 1 3 3 2 4 3 3 2 2 2 2 2 1 1 2 3 2 2 2 2 2 1 1 0 0 0 0 3 8 6 5 5 6 6 7 8
5 4 4 4 4 3 3 2 2 2 2 2 2 2 1 1 2 1 2 1 1 1 2 1 2 2 1 1 1 1 0 0 0 0 1 5 6 5 4 5 5 6 7
5 5 4 4 4 3 2 2 2 2 2 2 2 2 1 2 2 1 1 1 1 2 2 1 1 1 2 2 2 1 0 1 1 1 1 1 3 6 5 4 4 4 5
5 6 4 3 4 4 2 1 1 1 2 2 1 2 2 2 1 0 1 1 1 1 1 1 1 1 1 1 1 0 1 1 1 1 1 1 1 1 5 5 4 4 4
5 6 5 3 3 3 2 2 2 1 1 1 1 2 2 1 1 0 1 1 1 1 1 1 2 1 1 1 1 1 1 1 1 0 1 1 0 1 1 4 4 2 3
6 6 5 5 4 3 3 2 1 1 1 1 1 2 1 1 1 1 1 1 0 0 0 0 0 1 1 1 1 2 1 1 1 1 1 1 1 1 1 0 2 3 2
6 6 6 5 5 3 2 2 2 2 1 1 1 2 1 1 1 1 1 1 1 1 1 1 1 2 2 2 2 2 2 1 1 1 1 1 2 2 2 2 2 1 3
7 7 7 6 5 4 2 1 0 0 1 1 1 2 0 1 1 0 1 1 1 0 0 1 1 1 1 2 2 1 2 3 2 2 1 1 2 2 2 3 2 2 2
8 8 6 6 6 5 4 3 2 2 2 2 2 1 1 0 1 2 1 2 1 1 1 1 1 2 1 2 2 2 1 0 2 2 2 2 2 2 2 3 3 3 2
9 8 7 7 6 5 5 4 3 2 1 1 1 1 1 0 0 1 1 1 1 1 1 1 1 1 2 1 1 1 2 1 1 2 2 2 2 2 2 2 2 3 3
9 8 8 7 6 6 5 4 3 2 1 1 1 2 1 1 0 1 1 1 1 1 1 2 1 2 1 1 1 1 0 1 2 2 1 1 1 1 2 2 3 3 3
9 9 9 8 7 6 5 5 4 2 1 1 1 1 2 1 1 1 1 1 1 1 1 1 1 1 2 2 2 1 1 1 1 1 1 1 1 1 2 2 2 2 2
Wind_Direction
56 53 51 51 70 84 89 90 91 94 99 102 104 107 108 108 108 109 112 116 119 121 123 126 126 124 123 121 119 119 119 118 119 121 121 121 122 123 126 132 140 121 120
72 67 64 65 83 86 88 89 92 93 99 103 106 106 108 109 108 107 111 113 117 119 121 125 125 123 122 122 121 122 122 122 123 125 128 126 122 122 125 126 107 111 127
80 84 87 73 83 88 88 88 90 93 96 101 101 102 104 106 108 107 105 108 112 115 117 121 123 123 123 123 121 121 122 121 124 135 156 137 125 127 127 122 114 124 128
84 84 80 79 81 86 87 88 91 92 92 97 100 102 103 104 105 106 107 106 109 112 114 117 120 121 121 121 121 122 123 123 132 167 158 122 126 126 130 127 127 129 130
87 84 83 80 80 82 85 87 92 92 92 95 99 101 103 104 106 107 109 109 110 112 112 113 116 118 118 119 122 125 127 131 153 188 112 117 115 128 134 133 132 133 132
99 92 88 83 83 80 81 86 91 94 93 97 99 101 101 103 105 107 109 110 113 113 112 113 116 118 120 123 127 130 135 150 188 133 125 132 121 133 139 140 139 137 135
97 95 94 87 83 81 80 81 87 92 94 97 98 98 99 101 103 105 107 111 113 114 114 115 116 117 119 122 125 131 141 177 191 118 129 120 111 134 144 145 146 144 142
97 98 100 99 89 84 82 82 83 88 93 96 98 99 99 101 102 106 109 110 112 114 114 115 115 114 117 117 119 130 154 215 162 129 129 114 113 142 150 151 152 148 147
95 97 103 111 110 104 93 86 84 85 91 95 97 100 101 100 101 107 111 110 109 109 111 115 114 114 115 116 119 128 151 232 237 132 133 120 128 148 154 157 157 156 154
98 101 101 100 102 115 111 98 92 90 92 99 98 98 106 112 113 118 124 111 110 109 110 115 116 116 118 122 126 133 161 223 206 130 127 118 137 155 158 160 160 159 162
100 101 103 102 101 101 102 108 118 113 109 126 118 113 130 122 120 134 102 110 113 113 114 115 121 127 139 143 140 151 203 207 127 108 110 116 146 160 164 165 169 170 173
115 115 105 99 98 100 97 107 112 112 109 105 95 108 105 91 88 100 112 120 121 123 129 126 131 159 198 158 151 183 203 157 123 130 112 128 153 170 176 178 181 182 184
125 119 116 110 109 109 107 110 93 94 102 107 99 100 90 103 113 113 126 137 143 154 148 142 167 170 151 115 137 164 108 93 107 119 118 138 158 176 181 184 184 189 194
123 117 115 116 111 91 86 107 118 111 108 98 103 90 99 89 82 90 100 106 130 126 114 130 129 118 109 110 131 117 159 228 138 93 115 136 157 180 191 194 197 198 201
131 127 119 114 108 115 113 112 100 89 91 97 83 85 72 96 89 92 81 76 82 100 138 133 110 109 120 133 139 138 181 14 293 193 127 142 159 183 200 205 206 207 207
142 135 130 137 126 122 130 126 102 109 107 84 87 82 70 73 72 91 115 95 88 104 73 90 115 128 128 101 114 106 294 255 129 278 234 145 162 178 199 210 209 207 208
147 140 144 148 136 137 139 149 129 133 118 106 103 98 87 93 94 98 109 137 104 101 112 144 134 138 155 152 131 128 203 356 15 34 326 261 176 173 178 193 200 205 208
149 146 153 150 140 142 138 146 118 87 87 96 95 99 94 81 92 170 89 88 107 136 144 145 182 146 113 162 131 128 100 92 60 27 275 251 259 191 167 179 196 204 212
160 158 158 156 150 144 142 153 149 113 91 110 94 80 94 99 89 137 84 82 187 170 177 227 108 129 138 135 152 127 93 81 79 56 331 287 320 276 195 147 165 184 207
167 167 167 167 160 164 164 158 156 144 161 134 100 83 77 106 75 332 117 84 266 138 207 1 113 166 180 160 101 77 71 77 58 51 345 28 26 360 353 339 159 145 135
172 172 173 173 161 174 179 185 162 153 151 137 129 100 100 10 43 331 6 92 284 53 307 251 219 184 165 154 163 144 140 123 93 74 33 33 56 44 36 24 31 19 131
177 175 176 177 170 183 163 177 183 106 181 139 97 102 94 53 350 84 18 328 54 86 230 260 236 256 204 193 240 219 180 156 133 90 87 86 60 57 60 57 52 39 13
181 184 180 176 176 183 177 182 163 171 204 157 157 150 128 93 26 4 9 356 346 296 54 282 252 254 240 214 240 273 268 139 132 113 76 62 55 56 54 58 56 51 53
183 181 177 177 180 181 191 196 192 191 173 124 177 115 130 123 355 6 19 21 339 3 39 278 59 291 268 248 171 268 311 8 257 142 133 104 89 65 47 44 60 63 57
183 179 175 176 182 184 196 191 207 203 174 165 166 123 193 123 335 2 32 18 353 4 32 4 2 311 294 298 262 193 158 170 246 246 164 144 110 83 67 52 47 46 53
181 179 176 175 183 187 195 193 202 195 193 179 195 164 202 156 161 66 67 21 351 20 41 3 318 273 327 329 299 261 233 236 230 240 210 201 163 102 78 61 55 61 61